Date String (YYYY-MM-DD hh:mm:ss) UTC,Instrument flags,Ambient pressure (hPa),Sample flow (lpm),Bypass flow (lpm),Sample temperature (°C),Ambient temperature (°C),ASC tube jacket temperature (°C),LED temperature (°C),Box temperature (°C),Sample RH (%),Span deviation,Mass concentration (μg/m³),Mass concentration (μg/m³),Mass concentration (μg/m³)
DateTimeUTC,F1_M11,P_M11,Q1_M11,Q2_M11,T1_M11,T2_M11,T3_M11,T4_M11,T5_M11,U1_M11,ZSPAN_M11,X2_M11,X0_M11,X1_M11
2023-03-03 02:00:00,,0815.7,5.00,0.00,22.7,21.0,00.0,31.5,24.3,14.6,-003.0,0007.60,0013.34,0006.83
2023-03-03 02:01:00,,0815.7,5.00,0.00,22.7,20.9,00.0,31.5,24.3,14.6,-002.6,0007.60,0013.37,0006.83
2023-03-03 02:02:00,,0815.7,5.00,0.00,22.7,20.9,00.0,31.5,24.2,14.7,-002.6,0007.58,0013.57,0006.81
2023-03-03 02:03:00,,0815.6,5.01,0.00,22.6,20.8,00.0,31.5,24.2,14.7,-002.9,0007.54,0013.67,0006.78
2023-03-03 02:04:00,,0815.6,5.00,0.00,22.6,20.7,00.0,31.5,24.2,14.7,-002.8,0007.54,0013.99,0006.76
2023-03-03 02:05:00,,0815.7,5.01,0.00,22.6,20.8,00.0,31.5,24.2,14.7,-002.8,0007.52,0013.79,0006.75
2023-03-03 02:06:00,,0815.6,4.99,0.00,22.6,20.8,00.0,31.4,24.3,14.7,-003.0,0007.45,0013.42,0006.73
2023-03-03 02:07:00,,0815.7,5.00,0.00,22.6,20.8,00.0,31.4,24.2,14.7,-003.2,0007.46,0013.34,0006.72
2023-03-03 02:08:00,,0815.7,4.99,0.00,22.6,20.8,00.0,31.4,24.2,14.6,-003.0,0007.43,0013.17,0006.72
2023-03-03 02:09:00,,0815.7,5.00,0.00,22.6,20.8,00.0,31.4,24.2,14.6,-002.9,0007.42,0013.44,0006.72
2023-03-03 02:10:00,,0815.7,5.01,0.00,22.5,20.8,00.0,31.4,24.2,14.6,-002.9,0007.42,0013.62,0006.72
2023-03-03 02:11:00,,0815.7,5.00,0.00,22.5,20.8,00.0,31.4,24.2,14.5,-002.7,0007.41,0014.16,0006.71
2023-03-03 02:12:00,,0815.7,5.00,0.00,22.5,20.7,00.0,31.4,24.1,14.5,-003.0,0007.40,0014.18,0006.70
2023-03-03 02:13:00,,0815.7,5.00,0.00,22.5,20.7,00.0,31.4,24.1,14.6,-003.1,0007.38,0014.37,0006.69
2023-03-03 02:14:00,,0815.7,4.99,0.00,22.5,20.7,00.0,31.3,24.1,14.7,-003.2,0007.39,0014.40,0006.70
2023-03-03 02:15:00,,0815.7,5.01,0.00,22.4,20.6,00.0,31.3,24.1,14.6,-003.5,0007.39,0013.97,0006.71
2023-03-03 02:16:00,,0815.6,5.00,0.00,22.4,20.7,00.0,31.3,24.1,14.6,-003.6,0007.36,0014.25,0006.71
2023-03-03 02:17:00,,0815.6,5.02,0.00,22.4,20.6,00.0,31.3,24.1,14.7,-003.4,0007.36,0014.62,0006.72
2023-03-03 02:18:00,,0815.6,4.96,0.00,22.4,20.6,00.0,31.3,24.1,14.7,-003.2,0007.34,0014.78,0006.70
2023-03-03 02:19:00,,0815.7,4.98,0.00,22.4,20.7,00.0,31.3,24.1,14.6,-003.4,0007.33,0014.72,0006.71
2023-03-03 02:20:00,,0815.6,4.97,0.00,22.4,20.7,00.0,31.3,24.1,14.6,-003.3,0007.33,0014.49,0006.71
2023-03-03 02:21:00,,0815.6,5.00,0.00,22.4,20.7,00.0,31.3,24.0,14.5,-002.9,0007.30,0014.40,0006.68
2023-03-03 02:22:00,,0815.6,5.02,0.00,22.4,20.7,00.0,31.2,24.0,14.5,-002.8,0007.25,0014.51,0006.67
2023-03-03 02:23:00,,0815.6,5.01,0.00,22.4,20.7,00.0,31.2,24.0,14.5,-002.7,0007.22,0014.84,0006.64
2023-03-03 02:24:00,,0815.7,4.99,0.00,22.4,20.7,00.0,31.2,24.0,14.6,-002.8,0007.21,0015.18,0006.62
2023-03-03 02:25:00,,0815.7,4.99,0.00,22.4,20.7,00.0,31.2,24.0,14.6,-002.5,0007.20,0015.85,0006.60
2023-03-03 02:26:00,,0815.7,4.99,0.00,22.4,20.7,00.0,31.2,24.0,14.6,-002.3,0007.16,0016.13,0006.56
2023-03-03 02:27:00,,0815.8,5.01,0.00,22.4,20.7,00.0,31.2,24.0,14.6,-002.2,0007.15,0015.71,0006.53
2023-03-03 02:28:00,,0815.8,5.00,0.00,22.3,20.7,00.0,31.2,24.0,14.6,-002.5,0007.14,0015.27,0006.51
2023-03-03 02:29:00,,0815.8,5.00,0.00,22.3,20.7,00.0,31.2,24.0,14.5,-002.5,0007.13,0015.74,0006.50
2023-03-03 02:30:00,,0815.8,5.01,0.00,22.3,20.6,00.0,31.2,24.0,14.5,-002.2,0007.12,0015.99,0006.47
2023-03-03 02:31:00,,0815.8,5.00,0.00,22.3,20.6,00.0,31.2,23.9,14.5,-002.3,0007.10,0016.25,0006.44
2023-03-03 02:32:00,,0815.8,5.00,0.00,22.3,20.6,00.0,31.1,23.9,14.5,-002.5,0007.04,0016.13,0006.42
2023-03-03 02:33:00,,0815.8,5.00,0.00,22.3,20.6,00.0,31.1,23.9,14.5,-002.8,0007.02,0015.61,0006.42
2023-03-03 02:34:00,,0815.8,4.99,0.00,22.3,20.5,00.0,31.1,23.9,14.5,-002.9,0007.03,0014.96,0006.41
2023-03-03 02:35:00,,0815.9,5.00,0.00,22.3,20.5,00.0,31.1,23.9,14.5,-002.7,0007.05,0014.31,0006.42
2023-03-03 02:36:00,,0815.9,5.01,0.00,22.2,20.5,00.0,31.1,23.9,14.5,-002.8,0007.03,0013.45,0006.40
2023-03-03 02:37:00,,0815.9,5.00,0.00,22.2,20.5,00.0,31.1,23.9,14.5,-002.7,0007.07,0013.07,0006.40
2023-03-03 02:38:00,,0816.0,4.99,0.00,22.2,20.5,00.0,31.1,23.8,14.5,-002.9,0007.04,0013.06,0006.39
2023-03-03 02:39:00,,0815.9,4.99,0.00,22.2,20.4,00.0,31.1,23.8,14.5,-002.6,0007.03,0012.96,0006.40
2023-03-03 02:40:00,,0815.9,4.99,0.00,22.2,20.4,00.0,31.1,23.8,14.5,-002.6,0007.03,0012.43,0006.39
2023-03-03 02:41:00,,0816.0,5.01,0.00,22.2,20.4,00.0,31.0,23.8,14.5,-002.7,0007.05,0011.96,0006.39
2023-03-03 02:42:00,,0816.0,5.01,0.00,22.2,20.4,00.0,31.0,23.8,14.5,-002.5,0007.06,0011.73,0006.38
2023-03-03 02:43:00,,0815.9,5.00,0.00,22.1,20.4,00.0,31.0,23.8,14.5,-002.4,0007.09,0011.96,0006.39
2023-03-03 02:44:00,,0815.9,5.00,0.00,22.1,20.4,00.0,31.0,23.8,14.5,-002.2,0007.13,0011.95,0006.40
2023-03-03 02:45:00,,0815.9,5.00,0.00,22.1,20.4,00.0,31.0,23.8,14.5,-002.0,0007.17,0012.03,0006.41
2023-03-03 02:46:00,,0815.9,5.01,0.00,22.1,20.5,00.0,31.0,23.8,14.4,-001.9,0007.17,0011.97,0006.42
2023-03-03 02:47:00,,0815.9,5.00,0.00,22.1,20.5,00.0,31.0,23.8,14.4,-001.8,0007.17,0011.93,0006.43
2023-03-03 02:48:00,,0815.8,5.00,0.00,22.1,20.6,00.0,31.0,23.9,14.4,-001.7,0007.14,0011.80,0006.44
2023-03-03 02:49:00,,0815.8,4.99,0.00,22.1,20.6,00.0,31.0,23.9,14.4,-001.9,0007.16,0011.98,0006.45
2023-03-03 02:50:00,,0815.8,5.00,0.00,22.1,20.5,00.0,31.0,23.8,14.4,-002.4,0007.15,0012.09,0006.44
2023-03-03 02:51:00,,0815.8,4.99,0.00,22.1,20.5,00.0,31.0,23.8,14.4,-002.6,0007.09,0012.05,0006.43
2023-03-03 02:52:00,,0815.7,5.01,0.00,22.1,20.5,00.0,30.9,23.8,14.4,-002.8,0007.07,0012.03,0006.44
2023-03-03 02:53:00,,0815.7,5.00,0.00,22.1,20.5,00.0,30.9,23.8,14.4,-002.4,0007.08,0011.99,0006.48
2023-03-03 02:54:00,,0815.7,5.01,0.00,22.1,20.5,00.0,30.9,23.8,14.4,-002.2,0007.11,0011.89,0006.52
2023-03-03 02:55:00,,0815.7,4.99,0.00,22.1,20.5,00.0,30.9,23.9,14.4,-002.2,0007.14,0012.14,0006.57
2023-03-03 02:56:00,,0815.7,5.00,0.00,22.1,20.6,00.0,30.9,23.9,14.4,-002.1,0007.17,0012.34,0006.60
2023-03-03 02:57:00,,0815.7,5.00,0.00,22.1,20.6,00.0,30.9,23.9,14.3,-002.2,0007.20,0012.38,0006.63
2023-03-03 02:58:00,,0815.7,4.99,0.00,22.1,20.7,00.0,30.9,23.9,14.3,-002.2,0007.24,0012.38,0006.66
2023-03-03 02:59:00,,0815.7,5.01,0.00,22.2,21.2,00.0,30.9,24.1,14.3,-002.3,0007.27,0012.86,0006.70
